Weather History for KROC - September, 2012

Change the Weather History Date:

Saturday, September 8, 2012

  Actual Average Record
Temperature  
Mean Temperature 63 °F 65 °F  
Max Temperature 72 °F 75 °F 94 °F (1959)
Min Temperature 54 °F 55 °F 37 °F (1986)
Degree Days  
Heating Degree Days 2 3  
Month to date heating degree days 2 18  
Since 1 July heating degree days 9 52  
Cooling Degree Days 0 2  
Month to date cooling degree days 53 23  
Year to date cooling degree days 788 507  
Growing Degree Days 14 (Base 50)    
Moisture  
Dew Point 61 °F    
Average Humidity 78    
Maximum Humidity 93    
Minimum Humidity 63    
Precipitation  
Precipitation 0.20 in 0.11 in 1.43 in (2004)
Month to date precipitation 2.89 0.87  
Year to date precipitation 23.38 23.47  
Snow  
Snow 0.00 in 0.00 in 0.00 in ()
Month to date snowfall 0.0 0.0  
Since 1 July snowfall 0.0 0.0  
Since 1 September snowfall 0.0 0.0  
Snow Depth 0.00 in    
Sea Level Pressure  
Sea Level Pressure 29.59 in    
Wind  
Wind Speed 8 mph (SW)    
Max Wind Speed 25 mph    
Max Gust Speed 36 mph    
Visibility 9 miles    
Events Rain , Thunderstorm    
T = Trace of Precipitation, MM = Missing Value Source: NWS Daily Summary

Daily Weather History Graph

Daily Weather History Graph

Search for Another Location

Airport or City:

Trip Planner

Search our weather history database for the weather conditions in past years. The results will help you decide how hot, cold, wet, or windy it might be!

Date:

Astronomy

Sep. 08, 2012 Rise Set
Actual Time 6:43 AM EDT 7:32 PM EDT
Civil Twilight 6:14 AM EDT 8:01 PM EDT
Nautical Twilight 5:40 AM EDT 8:35 PM EDT
Astronomical Twilight 5:04 AM EDT 9:10 PM EDT
Moon No Moon Rise 2:34 PM EDT (9/8)
Length of Visible Light 13h 46m
Length of Day
12h 49m
Waning Gibbous, 49% of the Moon is Illuminated
Sep 8
Waning Gibbous
Sep 15
New
Sep 22
First Quarter
Sep 29
Full
Oct 8
Last Quarter

Hourly Weather History & Observations

Time (EDT) Temp. Dew Point Humidity Pressure Visibility Wind Dir Wind Speed Gust Speed Precip Events Conditions
12:54 AM 66.9 °F 64.9 °F 93% 29.69 in 9.0 mi Calm Calm - N/A   Overcast
1:54 AM 68.0 °F 66.0 °F 93% 29.66 in 9.0 mi Calm Calm - N/A   Overcast
2:54 AM 69.1 °F 66.0 °F 90% 29.64 in 10.0 mi South 6.9 mph - N/A   Overcast
3:54 AM 69.1 °F 64.9 °F 87% 29.60 in 10.0 mi South 5.8 mph - N/A   Scattered Clouds
4:54 AM 70.0 °F 64.9 °F 84% 29.55 in 10.0 mi South 8.1 mph - N/A   Mostly Cloudy
5:54 AM 71.1 °F 66.0 °F 84% 29.54 in 10.0 mi Calm Calm - 0.00 in Rain Light Rain
6:54 AM 69.1 °F 66.0 °F 90% 29.52 in 8.0 mi Calm Calm - 0.04 in Thunderstorm Thunderstorm
7:21 AM 69.8 °F 66.2 °F 88% 29.51 in 8.0 mi Calm Calm - N/A   Overcast
7:54 AM 70.0 °F 66.0 °F 87% 29.48 in 9.0 mi SE 5.8 mph - N/A   Overcast
8:54 AM 70.0 °F 66.9 °F 90% 29.48 in 4.0 mi WSW 9.2 mph - 0.01 in Rain , Thunderstorm Thunderstorms and Rain
9:16 AM 71.6 °F 66.2 °F 83% 29.46 in 9.0 mi SSW 11.5 mph - 0.01 in Rain Light Rain
9:54 AM 71.1 °F 66.0 °F 84% 29.44 in 10.0 mi South 12.7 mph - 0.01 in Rain Light Rain
10:54 AM 70.0 °F 64.0 °F 81% 29.42 in 10.0 mi SSW 18.4 mph 31.1 mph 0.00 in Rain Light Rain
11:04 AM 71.6 °F 64.4 °F 78% 29.46 in 1.0 mi SW 24.2 mph 29.9 mph 0.00 in Rain Heavy Rain
11:10 AM 66.2 °F 62.6 °F 88% 29.49 in 2.0 mi West 21.9 mph 29.9 mph 0.07 in Rain Rain
11:20 AM 62.6 °F 59.0 °F 88% 29.52 in 2.0 mi WNW 23.0 mph 35.7 mph 0.09 in Rain Rain
11:52 AM 62.6 °F 59.0 °F 88% 29.54 in 8.0 mi WNW 13.8 mph 26.5 mph 0.14 in Rain Light Rain
11:54 AM 62.1 °F 59.0 °F 90% 29.53 in 8.0 mi WNW 12.7 mph 26.5 mph 0.14 in Rain Light Rain
12:54 PM 63.0 °F 60.1 °F 90% 29.54 in 10.0 mi SSW 8.1 mph - 0.00 in   Overcast
1:28 PM 62.6 °F 60.8 °F 94% 29.55 in 10.0 mi SW 13.8 mph - 0.00 in Rain Light Rain
1:54 PM 63.0 °F 60.1 °F 90% 29.57 in 10.0 mi WSW 13.8 mph - 0.00 in Rain Light Rain
2:54 PM 63.0 °F 59.0 °F 87% 29.58 in 10.0 mi SW 12.7 mph - 0.00 in   Overcast
3:54 PM 64.9 °F 59.0 °F 81% 29.59 in 10.0 mi WSW 13.8 mph - N/A   Mostly Cloudy
4:54 PM 66.9 °F 55.9 °F 68% 29.62 in 10.0 mi West 19.6 mph 25.3 mph N/A   Mostly Cloudy
5:54 PM 66.0 °F 54.0 °F 65% 29.65 in 10.0 mi NW 16.1 mph 21.9 mph N/A   Mostly Cloudy
6:54 PM 64.0 °F 53.1 °F 67% 29.69 in 10.0 mi NW 9.2 mph - N/A   Mostly Cloudy
7:54 PM 61.0 °F 52.0 °F 72% 29.72 in 10.0 mi West 4.6 mph - N/A   Mostly Cloudy
8:54 PM 57.9 °F 54.0 °F 87% 29.75 in 10.0 mi SW 4.6 mph - N/A   Scattered Clouds
9:54 PM 55.9 °F 53.1 °F 90% 29.76 in 10.0 mi SW 4.6 mph - N/A   Partly Cloudy
10:54 PM 55.0 °F 53.1 °F 93% 29.78 in 10.0 mi SW 4.6 mph - N/A   Partly Cloudy
11:54 PM 55.0 °F 54.0 °F 96% 29.80 in 10.0 mi SSW 4.6 mph - N/A   Scattered Clouds